EJU98ET EGHI-LPFR

Flight info

Callsign EJU98ET
Flight time 2h 22m
Altitude 22000
Route NEDUL Z171 LELNA/N0442F350 DCT BALDA/N0442F370 DCT ABUPI DCT ALAGU
Aircraft A320/M-SDE3FGHIRWY/LB1

Departure

Time 2026-04-27 12:47
Airport Southampton Airport (EGHI)

Arrival

Time 2026-04-27 15:10
Airport Faro - Gago Coutinho International Airport (LPFR)
Time Latitude Longitude Altitude Speed Heading
2026-04-27 12:23 50.94971 -1.36119 39 ft 0 kts 19°
2026-04-27 12:33 50.94970 -1.36119 39 ft 0 kts 19°
2026-04-27 12:39 50.94962 -1.36124 37 ft 4 kts 22°
2026-04-27 12:39 50.94939 -1.36144 36 ft 4 kts 43°
2026-04-27 12:39 50.94925 -1.36176 39 ft 4 kts 89°
2026-04-27 12:39 50.94927 -1.36195 35 ft 1 kts 109°
2026-04-27 12:40 50.94927 -1.36197 35 ft 0 kts 109°
2026-04-27 12:42 50.94926 -1.36191 36 ft 2 kts 109°
2026-04-27 12:43 50.94916 -1.36150 37 ft 6 kts 109°
2026-04-27 12:43 50.94897 -1.36064 37 ft 8 kts 111°
2026-04-27 12:43 50.94855 -1.36035 39 ft 7 kts 189°
2026-04-27 12:43 50.94801 -1.36062 39 ft 8 kts 199°
2026-04-27 12:44 50.94755 -1.36088 39 ft 7 kts 200°
2026-04-27 12:44 50.94716 -1.36110 39 ft 5 kts 199°
2026-04-27 12:44 50.94684 -1.36128 39 ft 5 kts 198°
2026-04-27 12:44 50.94644 -1.36139 39 ft 8 kts 177°
2026-04-27 12:45 50.94586 -1.36081 39 ft 10 kts 125°
2026-04-27 12:45 50.94565 -1.35978 38 ft 9 kts 110°
2026-04-27 12:45 50.94511 -1.35966 38 ft 10 kts 200°
2026-04-27 12:45 50.94457 -1.35997 37 ft 14 kts 199°
2026-04-27 12:46 50.94368 -1.36047 37 ft 13 kts 199°
2026-04-27 12:46 50.94309 -1.36048 38 ft 2 kts 230°
2026-04-27 12:46 50.94337 -1.36063 34 ft 8 kts
2026-04-27 12:46 50.94347 -1.36058 33 ft 0 kts 19°
2026-04-27 12:47 50.94367 -1.36047 37 ft 20 kts 19°
2026-04-27 12:47 50.94775 -1.35820 40 ft 100 kts 19°
2026-04-27 12:47 50.95619 -1.35351 206 ft 140 kts 19°
2026-04-27 12:47 50.96545 -1.34830 770 ft 149 kts 20°
2026-04-27 12:48 50.97589 -1.34251 1186 ft 173 kts 20°
2026-04-27 12:48 50.98803 -1.33588 1536 ft 197 kts 19°
2026-04-27 12:48 51.00212 -1.33200 1893 ft 221 kts 355°
2026-04-27 12:48 51.01705 -1.34151 2316 ft 247 kts 321°
2026-04-27 12:49 51.02705 -1.36428 3073 ft 261 kts 288°
2026-04-27 12:49 51.02749 -1.39319 3973 ft 270 kts 252°
2026-04-27 12:49 51.01739 -1.41808 4855 ft 276 kts 220°
2026-04-27 12:49 51.00024 -1.43161 5732 ft 278 kts 198°
2026-04-27 12:50 50.98141 -1.43947 6590 ft 282 kts 193°
2026-04-27 12:50 50.96206 -1.44559 7448 ft 285 kts 191°
2026-04-27 12:50 50.94244 -1.45138 8321 ft 288 kts 192°
2026-04-27 12:50 50.92271 -1.45739 9179 ft 290 kts 193°
2026-04-27 12:51 50.90283 -1.46381 10029 ft 293 kts 194°
2026-04-27 12:51 50.88273 -1.47062 10636 ft 303 kts 194°
2026-04-27 12:51 50.86166 -1.47803 10861 ft 326 kts 195°
2026-04-27 12:51 50.83877 -1.48623 11328 ft 337 kts 195°
2026-04-27 12:52 50.81571 -1.49451 12001 ft 342 kts 195°
2026-04-27 12:52 50.79236 -1.50286 12715 ft 346 kts 195°
2026-04-27 12:52 50.76880 -1.51125 13434 ft 349 kts 195°
2026-04-27 12:52 50.74495 -1.51971 14117 ft 353 kts 194°
2026-04-27 12:53 50.69689 -1.53682 15281 ft 360 kts 194°
2026-04-27 12:53 50.67233 -1.54578 15873 ft 364 kts 197°
2026-04-27 12:53 50.64850 -1.55974 16446 ft 367 kts 205°
2026-04-27 12:54 50.62505 -1.57606 17041 ft 370 kts 205°
2026-04-27 12:54 50.60143 -1.59260 17663 ft 373 kts 205°
2026-04-27 12:54 50.57764 -1.60924 18245 ft 376 kts 205°
2026-04-27 12:54 50.55360 -1.62595 18787 ft 380 kts 205°
2026-04-27 12:55 50.52931 -1.64276 19299 ft 383 kts 205°
2026-04-27 12:55 50.50487 -1.65965 19832 ft 385 kts 206°
2026-04-27 12:55 50.48104 -1.67907 20367 ft 386 kts 210°
2026-04-27 12:55 50.45744 -1.69951 20905 ft 389 kts 211°
2026-04-27 12:56 50.43371 -1.72005 21439 ft 391 kts 211°
2026-04-27 12:56 50.40983 -1.74075 21966 ft 393 kts 211°
2026-04-27 12:56 50.38593 -1.76145 22240 ft 390 kts 211°
2026-04-27 12:56 50.36225 -1.78193 22298 ft 387 kts 211°
2026-04-27 12:57 50.33868 -1.80226 22300 ft 386 kts 211°
2026-04-27 12:57 50.31513 -1.82252 22301 ft 386 kts 211°
2026-04-27 12:57 50.29158 -1.84274 22294 ft 386 kts 211°
2026-04-27 12:57 50.26795 -1.86303 22299 ft 389 kts 211°
2026-04-27 12:58 50.24419 -1.88342 22295 ft 390 kts 211°
2026-04-27 12:58 50.22039 -1.90381 22296 ft 390 kts 211°
2026-04-27 12:58 50.19658 -1.92420 22296 ft 390 kts 211°
2026-04-27 12:58 50.17276 -1.94458 22294 ft 390 kts 211°
2026-04-27 12:59 50.14903 -1.96481 22296 ft 388 kts 211°
2026-04-27 12:59 50.12541 -1.98496 22295 ft 387 kts 211°
2026-04-27 12:59 50.10182 -2.00508 22295 ft 387 kts 211°
2026-04-27 12:59 50.07823 -2.02519 22296 ft 387 kts 211°
2026-04-27 13:00 50.05465 -2.04529 22296 ft 386 kts 211°
2026-04-27 13:00 50.03100 -2.06539 22300 ft 387 kts 211°
2026-04-27 13:00 50.00768 -2.08514 22299 ft 387 kts 211°
2026-04-27 13:00 49.98373 -2.10532 22299 ft 387 kts 210°
2026-04-27 13:01 49.95975 -2.12420 22299 ft 387 kts 208°
2026-04-27 13:01 49.93540 -2.14206 22293 ft 387 kts 206°
2026-04-27 13:01 49.91087 -2.15931 22282 ft 387 kts 206°
2026-04-27 13:01 49.88626 -2.17631 22282 ft 387 kts 206°
2026-04-27 13:02 49.86169 -2.19331 22278 ft 387 kts 206°
2026-04-27 13:02 49.83717 -2.21047 22277 ft 387 kts 206°
2026-04-27 13:02 49.81339 -2.22729 22276 ft 387 kts 206°
2026-04-27 13:02 49.78865 -2.24490 22275 ft 387 kts 206°
2026-04-27 13:03 49.76453 -2.26212 22277 ft 387 kts 206°
2026-04-27 13:03 49.74013 -2.27956 22275 ft 387 kts 206°
2026-04-27 13:03 49.71567 -2.29702 22274 ft 387 kts 205°
2026-04-27 13:03 49.69130 -2.31434 22274 ft 386 kts 205°
2026-04-27 13:04 49.66692 -2.33159 22273 ft 385 kts 205°
2026-04-27 13:04 49.64262 -2.34872 22276 ft 384 kts 206°
2026-04-27 13:04 49.61831 -2.36586 22275 ft 384 kts 206°
2026-04-27 13:04 49.59395 -2.38304 22278 ft 385 kts 205°
2026-04-27 13:05 49.56964 -2.40019 22275 ft 384 kts 206°
2026-04-27 13:05 49.54538 -2.41733 22274 ft 384 kts 205°
2026-04-27 13:05 49.52109 -2.43448 22277 ft 384 kts 206°
2026-04-27 13:05 49.49675 -2.45162 22282 ft 384 kts 204°
2026-04-27 13:06 49.47248 -2.46867 22275 ft 382 kts 205°
2026-04-27 13:06 49.44829 -2.48568 22274 ft 382 kts 205°
2026-04-27 13:06 49.42405 -2.50267 22282 ft 384 kts 205°
2026-04-27 13:06 49.39963 -2.51973 22751 ft 386 kts 205°
2026-04-27 13:07 49.37513 -2.53684 23309 ft 388 kts 205°
2026-04-27 13:07 49.35045 -2.55408 23797 ft 391 kts 205°
2026-04-27 13:07 49.32561 -2.57139 24211 ft 393 kts 205°
2026-04-27 13:07 49.30062 -2.58878 24643 ft 395 kts 204°
2026-04-27 13:08 49.27553 -2.60622 25056 ft 397 kts 205°
2026-04-27 13:08 49.25038 -2.62371 25494 ft 397 kts 204°
2026-04-27 13:08 49.22521 -2.64123 25921 ft 398 kts 204°
2026-04-27 13:08 49.19998 -2.65875 26334 ft 399 kts 204°
2026-04-27 13:09 49.17459 -2.67633 26668 ft 402 kts 204°
2026-04-27 13:09 49.14906 -2.69398 27025 ft 404 kts 204°
2026-04-27 13:09 49.12336 -2.71175 27387 ft 406 kts 204°
2026-04-27 13:09 49.09761 -2.72956 27742 ft 407 kts 204°
2026-04-27 13:10 49.07176 -2.74738 28110 ft 409 kts 204°
2026-04-27 13:10 49.04580 -2.76525 28462 ft 410 kts 204°
2026-04-27 13:10 49.01982 -2.78313 28893 ft 409 kts 204°
2026-04-27 13:10 48.99384 -2.80100 29270 ft 410 kts 204°
2026-04-27 13:11 48.96780 -2.81885 29606 ft 411 kts 204°
2026-04-27 13:11 48.94167 -2.83677 29922 ft 413 kts 204°
2026-04-27 13:11 48.91544 -2.85477 30232 ft 414 kts 204°
2026-04-27 13:11 48.88911 -2.87281 30488 ft 416 kts 204°
2026-04-27 13:12 48.86269 -2.89086 30705 ft 418 kts 204°
2026-04-27 13:12 48.83610 -2.90897 30917 ft 420 kts 204°
2026-04-27 13:12 48.80938 -2.92717 31116 ft 422 kts 204°
2026-04-27 13:12 48.78254 -2.94542 31322 ft 424 kts 204°
2026-04-27 13:13 48.75565 -2.96373 31576 ft 424 kts 204°
2026-04-27 13:13 48.72873 -2.98207 31860 ft 424 kts 204°
2026-04-27 13:13 48.70181 -3.00039 32137 ft 424 kts 204°
2026-04-27 13:13 48.67488 -3.01864 32416 ft 424 kts 204°
2026-04-27 13:14 48.64794 -3.03684 32694 ft 424 kts 204°
2026-04-27 13:14 48.62089 -3.05509 32882 ft 428 kts 204°
2026-04-27 13:14 48.59364 -3.07348 33077 ft 430 kts 204°
2026-04-27 13:14 48.56633 -3.09191 33357 ft 430 kts 204°
2026-04-27 13:15 48.53905 -3.11035 33645 ft 429 kts 204°
2026-04-27 13:15 48.51179 -3.12874 33913 ft 430 kts 204°
2026-04-27 13:15 48.48450 -3.14711 34186 ft 430 kts 204°
2026-04-27 13:15 48.45721 -3.16543 34443 ft 429 kts 204°
2026-04-27 13:16 48.42992 -3.18376 34660 ft 429 kts 204°
2026-04-27 13:16 48.40261 -3.20210 34870 ft 430 kts 204°
2026-04-27 13:16 48.37534 -3.22038 35109 ft 429 kts 205°
2026-04-27 13:16 48.34810 -3.23857 35332 ft 428 kts 204°
2026-04-27 13:17 48.32087 -3.25670 35537 ft 428 kts 204°
2026-04-27 13:17 48.29361 -3.27484 35724 ft 429 kts 204°
2026-04-27 13:17 48.26630 -3.29301 35903 ft 429 kts 204°
2026-04-27 13:17 48.23905 -3.31115 36083 ft 429 kts 204°
2026-04-27 13:18 48.21176 -3.32932 36260 ft 429 kts 204°
2026-04-27 13:18 48.18441 -3.34749 36435 ft 430 kts 204°
2026-04-27 13:18 48.15710 -3.36557 36617 ft 429 kts 205°
2026-04-27 13:18 48.12981 -3.38361 36813 ft 429 kts 205°
2026-04-27 13:19 48.10253 -3.40163 36980 ft 429 kts 205°
2026-04-27 13:19 48.07523 -3.41962 37154 ft 429 kts 204°
2026-04-27 13:19 48.02047 -3.45577 37204 ft 431 kts 204°
2026-04-27 13:20 47.96602 -3.49164 37200 ft 431 kts 204°
2026-04-27 13:20 47.91134 -3.52749 37201 ft 428 kts 205°
2026-04-27 13:21 47.85678 -3.56314 37201 ft 428 kts 205°
2026-04-27 13:21 47.80227 -3.59877 37195 ft 428 kts 205°
2026-04-27 13:22 47.74743 -3.63465 37197 ft 428 kts 205°
2026-04-27 13:22 47.69329 -3.66990 37201 ft 427 kts 205°
2026-04-27 13:23 47.63877 -3.70515 37210 ft 427 kts 205°
2026-04-27 13:23 47.58431 -3.74038 37225 ft 427 kts 205°
2026-04-27 13:24 47.52989 -3.77565 37212 ft 427 kts 205°
2026-04-27 13:24 47.47545 -3.81081 37210 ft 427 kts 205°
2026-04-27 13:25 47.42090 -3.84579 37215 ft 427 kts 205°
2026-04-27 13:25 47.36638 -3.88073 37216 ft 427 kts 205°
2026-04-27 13:26 47.31184 -3.91563 37205 ft 427 kts 205°
2026-04-27 13:26 47.25738 -3.95041 37222 ft 426 kts 205°
2026-04-27 13:27 47.20301 -3.98506 37228 ft 426 kts 205°
2026-04-27 13:27 47.14867 -4.01963 37223 ft 425 kts 205°
2026-04-27 13:28 47.09436 -4.05407 37220 ft 425 kts 205°
2026-04-27 13:28 47.04012 -4.08839 37219 ft 424 kts 205°
2026-04-27 13:29 46.98590 -4.12263 37226 ft 424 kts 205°
2026-04-27 13:29 46.94079 -4.15103 37217 ft 425 kts 205°
2026-04-27 13:30 46.88644 -4.18521 37207 ft 425 kts 205°
2026-04-27 13:30 46.83213 -4.21929 37215 ft 425 kts 205°
2026-04-27 13:31 46.77778 -4.25326 37216 ft 425 kts 205°
2026-04-27 13:31 46.72349 -4.28720 37222 ft 424 kts 205°
2026-04-27 13:32 46.66921 -4.32107 37213 ft 424 kts 205°
2026-04-27 13:32 46.61488 -4.35486 37214 ft 424 kts 205°
2026-04-27 13:33 46.56055 -4.38842 37221 ft 424 kts 205°
2026-04-27 13:33 46.50624 -4.42203 37220 ft 424 kts 205°
2026-04-27 13:34 46.45200 -4.45571 37209 ft 424 kts 205°
2026-04-27 13:34 46.39778 -4.48918 37216 ft 423 kts 205°
2026-04-27 13:35 46.34361 -4.52246 37220 ft 423 kts 205°
2026-04-27 13:35 46.28946 -4.55568 37216 ft 422 kts 205°
2026-04-27 13:36 46.23543 -4.58890 37214 ft 422 kts 205°
2026-04-27 13:36 46.18143 -4.62188 37220 ft 421 kts 205°
2026-04-27 13:37 46.12752 -4.65476 37223 ft 420 kts 205°
2026-04-27 13:37 46.07365 -4.68750 37222 ft 420 kts 205°
2026-04-27 13:38 46.01985 -4.72021 37217 ft 419 kts 205°
2026-04-27 13:38 45.96613 -4.75279 37220 ft 419 kts 205°
2026-04-27 13:39 45.91236 -4.78537 37215 ft 419 kts 205°
2026-04-27 13:39 45.85858 -4.81792 37195 ft 419 kts 205°
2026-04-27 13:40 45.80483 -4.85030 37209 ft 419 kts 205°
2026-04-27 13:40 45.75114 -4.88251 37214 ft 418 kts 205°
2026-04-27 13:41 45.69748 -4.91462 37212 ft 418 kts 205°
2026-04-27 13:41 45.64384 -4.94666 37201 ft 417 kts 205°
2026-04-27 13:42 45.59036 -4.97872 37208 ft 417 kts 205°
2026-04-27 13:42 45.53692 -5.01056 37209 ft 416 kts 205°
2026-04-27 13:43 45.48353 -5.04235 37207 ft 416 kts 205°
2026-04-27 13:43 45.43014 -5.07401 37201 ft 415 kts 205°
2026-04-27 13:44 45.37719 -5.10549 37203 ft 415 kts 205°
2026-04-27 13:44 45.32388 -5.13706 37203 ft 415 kts 205°
2026-04-27 13:45 45.27051 -5.16842 37201 ft 415 kts 205°
2026-04-27 13:45 45.21715 -5.19975 37188 ft 415 kts 205°
2026-04-27 13:46 45.16392 -5.23113 37197 ft 414 kts 205°
2026-04-27 13:46 45.11070 -5.26238 37196 ft 414 kts 205°
2026-04-27 13:47 45.05747 -5.29342 37183 ft 414 kts 205°
2026-04-27 13:47 45.00432 -5.32442 37193 ft 413 kts 205°
2026-04-27 13:48 44.95129 -5.35541 37200 ft 412 kts 205°
2026-04-27 13:48 44.89820 -5.38636 37186 ft 413 kts 205°
2026-04-27 13:49 44.84506 -5.41723 37170 ft 413 kts 205°
2026-04-27 13:49 44.79196 -5.44794 37182 ft 412 kts 205°
2026-04-27 13:50 44.73889 -5.47860 37189 ft 412 kts 205°
2026-04-27 13:50 44.68589 -5.50923 37187 ft 412 kts 205°
2026-04-27 13:51 44.63285 -5.53972 37186 ft 412 kts 205°
2026-04-27 13:51 44.58003 -5.57058 37186 ft 411 kts 206°
2026-04-27 13:52 44.52771 -5.60307 37188 ft 411 kts 207°
2026-04-27 13:52 44.47558 -5.63587 37170 ft 411 kts 207°
2026-04-27 13:53 44.39722 -5.68435 37178 ft 410 kts 206°
2026-04-27 13:54 44.34531 -5.71620 37192 ft 410 kts 206°
2026-04-27 13:54 44.29299 -5.74824 37186 ft 410 kts 206°
2026-04-27 13:55 44.24066 -5.78027 37171 ft 410 kts 206°
2026-04-27 13:55 44.18840 -5.81221 37176 ft 410 kts 206°
2026-04-27 13:56 44.13618 -5.84410 37179 ft 410 kts 206°
2026-04-27 13:56 44.08395 -5.87591 37180 ft 410 kts 206°
2026-04-27 13:57 44.03174 -5.90760 37180 ft 409 kts 206°
2026-04-27 13:57 43.97955 -5.93921 37176 ft 409 kts 206°
2026-04-27 13:58 43.92731 -5.97073 37170 ft 409 kts 206°
2026-04-27 13:58 43.87515 -6.00224 37174 ft 409 kts 206°
2026-04-27 13:59 43.82298 -6.03382 37157 ft 409 kts 206°
2026-04-27 13:59 43.77081 -6.06518 37165 ft 409 kts 206°
2026-04-27 14:00 43.71858 -6.09644 37172 ft 409 kts 206°
2026-04-27 14:00 43.66637 -6.12762 37147 ft 409 kts 206°
2026-04-27 14:01 43.61412 -6.15889 37152 ft 409 kts 206°
2026-04-27 14:01 43.56192 -6.19014 37166 ft 409 kts 206°
2026-04-27 14:02 43.51002 -6.22116 37165 ft 409 kts 206°
2026-04-27 14:02 43.45772 -6.25224 37141 ft 409 kts 206°
2026-04-27 14:03 43.40541 -6.28319 37135 ft 409 kts 206°
2026-04-27 14:03 43.35306 -6.31425 37133 ft 410 kts 206°
2026-04-27 14:04 43.30069 -6.34523 37121 ft 410 kts 206°
2026-04-27 14:04 43.24824 -6.37620 37099 ft 410 kts 206°
2026-04-27 14:05 43.19575 -6.40713 37100 ft 411 kts 206°
2026-04-27 14:05 43.14324 -6.43800 37095 ft 411 kts 206°
2026-04-27 14:06 43.09065 -6.46883 37105 ft 411 kts 205°
2026-04-27 14:06 43.03803 -6.49964 37088 ft 411 kts 206°
2026-04-27 14:07 42.98539 -6.53045 37081 ft 412 kts 206°
2026-04-27 14:07 42.93271 -6.56121 37082 ft 412 kts 206°
2026-04-27 14:08 42.87997 -6.59193 37074 ft 412 kts 206°
2026-04-27 14:08 42.82713 -6.62264 37073 ft 413 kts 205°
2026-04-27 14:09 42.77422 -6.65328 37064 ft 414 kts 205°
2026-04-27 14:09 42.72126 -6.68401 37069 ft 414 kts 205°
2026-04-27 14:10 42.66823 -6.71473 37072 ft 414 kts 205°
2026-04-27 14:10 42.61511 -6.74541 37072 ft 414 kts 205°
2026-04-27 14:11 42.56202 -6.77599 37078 ft 415 kts 205°
2026-04-27 14:11 42.50891 -6.80652 37076 ft 415 kts 205°
2026-04-27 14:12 42.45575 -6.83696 37080 ft 415 kts 205°
2026-04-27 14:12 42.40264 -6.86738 37065 ft 414 kts 205°
2026-04-27 14:13 42.34950 -6.89778 37063 ft 415 kts 205°
2026-04-27 14:13 42.29631 -6.92822 37068 ft 415 kts 205°
2026-04-27 14:14 42.25203 -6.95337 37071 ft 415 kts 205°
2026-04-27 14:14 42.19872 -6.98360 37073 ft 415 kts 205°
2026-04-27 14:15 42.14541 -7.01387 37060 ft 416 kts 205°
2026-04-27 14:15 42.09212 -7.04414 37057 ft 416 kts 205°
2026-04-27 14:16 42.03879 -7.07435 37063 ft 416 kts 205°
2026-04-27 14:16 41.98545 -7.10444 37062 ft 416 kts 205°
2026-04-27 14:17 41.93210 -7.13450 37055 ft 416 kts 205°
2026-04-27 14:17 41.87878 -7.16452 37055 ft 415 kts 205°
2026-04-27 14:18 41.82542 -7.19449 37058 ft 415 kts 205°
2026-04-27 14:18 41.77207 -7.22425 37045 ft 416 kts 202°
2026-04-27 14:19 41.71537 -7.24014 37029 ft 420 kts 187°
2026-04-27 14:19 41.65702 -7.24635 37030 ft 421 kts 187°
2026-04-27 14:20 41.59866 -7.25276 37024 ft 421 kts 187°
2026-04-27 14:20 41.54032 -7.25920 37010 ft 421 kts 187°
2026-04-27 14:21 41.48198 -7.26556 37015 ft 421 kts 187°
2026-04-27 14:21 41.42358 -7.27180 37014 ft 421 kts 187°
2026-04-27 14:22 41.36520 -7.27797 37008 ft 421 kts 187°
2026-04-27 14:22 41.30681 -7.28429 37004 ft 421 kts 187°
2026-04-27 14:23 41.24836 -7.29057 36999 ft 421 kts 187°
2026-04-27 14:23 41.19026 -7.29674 37004 ft 421 kts 187°
2026-04-27 14:24 41.13186 -7.30298 37006 ft 421 kts 187°
2026-04-27 14:24 41.07346 -7.30926 36998 ft 421 kts 187°
2026-04-27 14:25 41.01507 -7.31552 36995 ft 421 kts 187°
2026-04-27 14:25 40.95668 -7.32177 36998 ft 421 kts 187°
2026-04-27 14:26 40.89829 -7.32802 36989 ft 421 kts 187°
2026-04-27 14:26 40.83988 -7.33422 36995 ft 421 kts 187°
2026-04-27 14:27 40.78154 -7.34032 36998 ft 421 kts 187°
2026-04-27 14:27 40.72320 -7.34641 36998 ft 421 kts 187°
2026-04-27 14:28 40.66486 -7.35263 36988 ft 421 kts 187°
2026-04-27 14:28 40.60653 -7.35881 36995 ft 420 kts 187°
2026-04-27 14:29 40.54826 -7.36490 36998 ft 420 kts 187°
2026-04-27 14:29 40.49039 -7.37097 36999 ft 420 kts 187°
2026-04-27 14:30 40.43210 -7.37709 37000 ft 420 kts 187°
2026-04-27 14:30 40.37383 -7.38327 37000 ft 420 kts 187°
2026-04-27 14:31 40.31562 -7.38941 37003 ft 420 kts 187°
2026-04-27 14:31 40.25741 -7.39547 37003 ft 420 kts 186°
2026-04-27 14:32 40.19918 -7.40148 36994 ft 420 kts 186°
2026-04-27 14:32 40.14098 -7.40752 36992 ft 419 kts 186°
2026-04-27 14:33 40.08279 -7.41356 36991 ft 419 kts 186°
2026-04-27 14:33 40.02460 -7.41957 36989 ft 419 kts 186°
2026-04-27 14:34 39.96644 -7.42560 36982 ft 419 kts 186°
2026-04-27 14:34 39.90831 -7.43166 36985 ft 419 kts 186°
2026-04-27 14:35 39.85015 -7.43760 36983 ft 419 kts 186°
2026-04-27 14:35 39.79201 -7.44358 36983 ft 419 kts 186°
2026-04-27 14:36 39.73389 -7.44951 36974 ft 419 kts 186°
2026-04-27 14:36 39.67581 -7.45545 36974 ft 419 kts 186°
2026-04-27 14:37 39.61776 -7.46143 36978 ft 418 kts 186°
2026-04-27 14:37 39.55976 -7.46734 36971 ft 418 kts 186°
2026-04-27 14:38 39.50177 -7.47326 36974 ft 418 kts 186°
2026-04-27 14:38 39.44383 -7.47921 36977 ft 417 kts 186°
2026-04-27 14:39 39.38593 -7.48509 36979 ft 417 kts 186°
2026-04-27 14:39 39.32805 -7.49093 36970 ft 417 kts 186°
2026-04-27 14:40 39.27020 -7.49683 36969 ft 417 kts 186°
2026-04-27 14:40 39.21228 -7.50268 36968 ft 417 kts 186°
2026-04-27 14:41 39.15433 -7.50859 36962 ft 418 kts 186°
2026-04-27 14:41 39.09640 -7.51449 36959 ft 418 kts 186°
2026-04-27 14:42 39.03846 -7.52031 36958 ft 418 kts 186°
2026-04-27 14:42 38.98085 -7.52609 36959 ft 418 kts 186°
2026-04-27 14:43 38.92287 -7.53180 36957 ft 418 kts 186°
2026-04-27 14:43 38.86485 -7.53752 36947 ft 418 kts 186°
2026-04-27 14:44 38.80689 -7.54342 36953 ft 418 kts 186°
2026-04-27 14:44 38.77789 -7.54636 36758 ft 418 kts 185°
2026-04-27 14:44 38.74891 -7.54926 36494 ft 418 kts 185°
2026-04-27 14:44 38.71993 -7.55213 36235 ft 418 kts 185°
2026-04-27 14:45 38.69096 -7.55503 35972 ft 418 kts 185°
2026-04-27 14:45 38.66210 -7.55792 35551 ft 414 kts 185°
2026-04-27 14:45 38.63353 -7.56074 35052 ft 410 kts 185°
2026-04-27 14:45 38.60519 -7.56354 34561 ft 407 kts 185°
2026-04-27 14:46 38.57706 -7.56634 34067 ft 404 kts 185°
2026-04-27 14:46 38.54906 -7.56912 33529 ft 402 kts 185°
2026-04-27 14:46 38.52133 -7.57186 33047 ft 398 kts 185°
2026-04-27 14:46 38.49386 -7.57454 32564 ft 394 kts 185°
2026-04-27 14:47 38.46665 -7.57721 32091 ft 391 kts 185°
2026-04-27 14:47 38.43962 -7.57990 31621 ft 388 kts 185°
2026-04-27 14:47 38.41284 -7.58260 31159 ft 385 kts 185°
2026-04-27 14:47 38.38623 -7.58528 30702 ft 382 kts 185°
2026-04-27 14:48 38.35979 -7.58789 30251 ft 380 kts 185°
2026-04-27 14:48 38.30741 -7.59302 29333 ft 374 kts 185°
2026-04-27 14:48 38.28160 -7.59556 28910 ft 370 kts 185°
2026-04-27 14:49 38.25606 -7.59808 28505 ft 366 kts 185°
2026-04-27 14:49 38.23079 -7.60055 28096 ft 363 kts 185°
2026-04-27 14:49 38.20574 -7.60302 27692 ft 359 kts 185°
2026-04-27 14:49 38.18097 -7.60544 27295 ft 356 kts 185°
2026-04-27 14:50 38.15641 -7.60783 26891 ft 352 kts 185°
2026-04-27 14:50 38.13211 -7.61022 26490 ft 349 kts 185°
2026-04-27 14:50 38.10808 -7.61317 26083 ft 345 kts 190°
2026-04-27 14:50 38.08496 -7.62100 25653 ft 343 kts 201°
2026-04-27 14:51 38.06360 -7.63436 25232 ft 342 kts 211°
2026-04-27 14:51 38.04355 -7.65059 24783 ft 341 kts 211°
2026-04-27 14:51 38.02352 -7.66672 24337 ft 341 kts 211°
2026-04-27 14:51 38.00998 -7.67757 24030 ft 340 kts 211°
2026-04-27 14:52 37.98345 -7.69877 23406 ft 341 kts 211°
2026-04-27 14:52 37.96343 -7.71472 22895 ft 339 kts 211°
2026-04-27 14:52 37.94347 -7.73063 22446 ft 338 kts 211°
2026-04-27 14:52 37.92365 -7.74647 21998 ft 336 kts 212°
2026-04-27 14:53 37.90396 -7.76219 21564 ft 334 kts 212°
2026-04-27 14:53 37.88430 -7.77787 21125 ft 333 kts 212°
2026-04-27 14:53 37.86469 -7.79350 20691 ft 333 kts 212°
2026-04-27 14:53 37.84512 -7.80909 20261 ft 332 kts 212°
2026-04-27 14:54 37.82560 -7.82463 19821 ft 332 kts 212°
2026-04-27 14:54 37.80608 -7.84016 19402 ft 331 kts 212°
2026-04-27 14:54 37.78659 -7.85567 18973 ft 331 kts 211°
2026-04-27 14:54 37.76709 -7.87123 18551 ft 331 kts 212°
2026-04-27 14:55 37.74757 -7.88679 18102 ft 332 kts 211°
2026-04-27 14:55 37.72808 -7.90232 17659 ft 331 kts 211°
2026-04-27 14:55 37.70862 -7.91776 17237 ft 329 kts 211°
2026-04-27 14:55 37.68925 -7.93309 16823 ft 328 kts 211°
2026-04-27 14:56 37.66994 -7.94837 16412 ft 327 kts 211°
2026-04-27 14:56 37.65070 -7.96355 16001 ft 326 kts 211°
2026-04-27 14:56 37.63799 -7.97359 15736 ft 325 kts 211°
2026-04-27 14:56 37.61885 -7.98870 15337 ft 324 kts 211°
2026-04-27 14:57 37.59975 -8.00378 14937 ft 324 kts 211°
2026-04-27 14:57 37.58070 -8.01882 14539 ft 323 kts 211°
2026-04-27 14:57 37.56169 -8.03382 14141 ft 322 kts 211°
2026-04-27 14:57 37.54270 -8.04880 13737 ft 322 kts 211°
2026-04-27 14:58 37.52375 -8.06372 13290 ft 320 kts 211°
2026-04-27 14:58 37.50490 -8.07857 12895 ft 319 kts 211°
2026-04-27 14:58 37.48616 -8.09331 12487 ft 317 kts 211°
2026-04-27 14:58 37.46753 -8.10797 12090 ft 315 kts 211°
2026-04-27 14:59 37.44897 -8.12256 11677 ft 314 kts 211°
2026-04-27 14:59 37.43047 -8.13710 11272 ft 313 kts 211°
2026-04-27 14:59 37.41205 -8.15156 10875 ft 311 kts 211°
2026-04-27 14:59 37.39402 -8.16573 10744 ft 300 kts 211°
2026-04-27 15:00 37.37648 -8.17953 10458 ft 296 kts 211°
2026-04-27 15:00 37.35911 -8.19320 10098 ft 294 kts 211°
2026-04-27 15:00 37.34172 -8.20684 9723 ft 294 kts 211°
2026-04-27 15:00 37.32438 -8.22041 9312 ft 294 kts 210°
2026-04-27 15:01 37.30702 -8.23396 8911 ft 294 kts 211°
2026-04-27 15:01 37.28967 -8.24752 8477 ft 294 kts 211°
2026-04-27 15:01 37.27235 -8.26108 8054 ft 293 kts 211°
2026-04-27 15:01 37.25505 -8.27463 7639 ft 293 kts 211°
2026-04-27 15:02 37.23763 -8.28778 7236 ft 292 kts 204°
2026-04-27 15:02 37.21855 -8.29560 6830 ft 288 kts 186°
2026-04-27 15:02 37.19870 -8.29603 6398 ft 284 kts 169°
2026-04-27 15:02 37.17920 -8.29226 5966 ft 283 kts 168°
2026-04-27 15:03 37.15976 -8.28850 5433 ft 287 kts 168°
2026-04-27 15:03 37.14002 -8.28475 5061 ft 285 kts 168°
2026-04-27 15:03 37.12089 -8.28119 4895 ft 268 kts 169°
2026-04-27 15:03 37.10323 -8.27796 4783 ft 246 kts 168°
2026-04-27 15:04 37.08690 -8.27493 4678 ft 236 kts 168°
2026-04-27 15:04 37.07110 -8.27115 4551 ft 225 kts 154°
2026-04-27 15:04 37.05915 -8.26040 4456 ft 205 kts 123°
2026-04-27 15:04 37.05350 -8.24457 4159 ft 198 kts 97°
2026-04-27 15:05 37.05117 -8.22718 3809 ft 201 kts 97°
2026-04-27 15:05 37.04879 -8.21013 3548 ft 200 kts 98°
2026-04-27 15:05 37.04642 -8.19323 3264 ft 194 kts 98°
2026-04-27 15:05 37.04413 -8.17686 3001 ft 188 kts 98°
2026-04-27 15:06 37.04191 -8.16104 2753 ft 181 kts 98°
2026-04-27 15:06 37.03977 -8.14576 2524 ft 175 kts 98°
2026-04-27 15:06 37.03770 -8.13096 2301 ft 170 kts 99°
2026-04-27 15:06 37.03567 -8.11648 2077 ft 168 kts 99°
2026-04-27 15:07 37.03366 -8.10221 1851 ft 164 kts 99°
2026-04-27 15:07 37.03176 -8.08865 1643 ft 152 kts 100°
2026-04-27 15:07 37.03000 -8.07621 1453 ft 140 kts 99°
2026-04-27 15:07 37.02835 -8.06446 1272 ft 136 kts 101°
2026-04-27 15:08 37.02670 -8.05279 1101 ft 137 kts 100°
2026-04-27 15:08 37.02504 -8.04100 924 ft 135 kts 102°
2026-04-27 15:08 37.02346 -8.02938 726 ft 136 kts 101°
2026-04-27 15:08 37.02200 -8.01792 609 ft 133 kts 101°
2026-04-27 15:09 37.02023 -8.00655 421 ft 134 kts 103°
2026-04-27 15:09 37.01863 -7.99510 223 ft 133 kts 102°
2026-04-27 15:09 37.01696 -7.98371 42 ft 132 kts 101°
2026-04-27 15:09 37.01556 -7.97388 20 ft 91 kts 100°
2026-04-27 15:10 37.01476 -7.96818 25 ft 42 kts 99°
2026-04-27 15:10 37.01452 -7.96613 23 ft 18 kts 77°
2026-04-27 15:10 37.01556 -7.96565 21 ft 9 kts 10°
2026-04-27 15:10 37.01618 -7.96551 20 ft 9 kts 10°
2026-04-27 15:11 37.01675 -7.96539 20 ft 8 kts
2026-04-27 15:11 37.01726 -7.96528 20 ft 7 kts
2026-04-27 15:11 37.01772 -7.96525 21 ft 6 kts 339°
2026-04-27 15:11 37.01792 -7.96576 21 ft 8 kts 283°
2026-04-27 15:12 37.01803 -7.96646 22 ft 8 kts 280°
2026-04-27 15:12 37.01815 -7.96707 21 ft 6 kts 307°
2026-04-27 15:12 37.01853 -7.96707 20 ft 6 kts 11°
2026-04-27 15:12 37.01890 -7.96699 20 ft 3 kts
2026-04-27 15:13 37.01899 -7.96697 20 ft 0 kts